Volver al catálogo

MACSAT 2

M 2

ActivoComunicacionesPO
NORAD 20608·PAYLOAD·🇺🇸 United States

Lanzado May 9, 1990 desde Vandenberg Space Force Base

Loading…

Próximos Pases (próximas 24 horas)

TLE

ActualizadoSource: Space-Track

Época: Sep 14, 2026, 09:14 UTC

1 20608U 90043B   26257.38531649  .00000538  00000-0  63797-4 0  9995
2 20608  89.7518 242.4410 0079793 208.3914 151.2953 14.80820876951594

Sigue MACSAT 2 en tiempo real con AllMySat

Download on the App Store